Theta_e
302 303 303 303 303 303 304 304 304 304 304 304 303 302 302 302 303 303 303 304 301 299 301 302 301 301 301 301 302 302 302 302 302 303 302 303 308 310 311 310 307 305 304 305 305 307 308 307 309 309 310 313 314 314 314 316 317 316 317 317 315 315 316 317 319 318 318 319 319 319 319 319 319 321 321 320 322 321 326 332 334 336 333 333 335 329 324 335
302 303 303 303 303 303 303 303 303 304 304 304 304 303 302 302 303 304 303 301 299 300 301 301 301 300 300 301 301 302 302 302 303 306 305 305 307 307 307 304 302 302 303 304 304 305 307 307 309 310 311 313 314 315 314 316 316 315 318 316 314 315 316 317 318 317 318 319 318 319 319 319 319 320 320 320 322 320 326 336 338 340 341 340 338 328 325 334
302 302 303 303 302 303 303 303 303 303 304 304 304 304 303 302 302 304 304 301 299 299 301 300 300 300 300 300 300 302 303 302 307 311 308 307 306 305 305 303 301 301 302 304 304 305 307 308 311 311 312 313 314 315 315 315 315 315 316 315 315 315 316 317 318 318 318 319 318 318 319 319 319 319 320 320 321 318 328 342 344 345 346 344 339 329 326 334
302 302 303 303 302 302 303 302 303 303 302 303 303 303 303 302 302 302 303 301 299 298 300 299 299 300 300 299 300 302 302 305 312 314 310 308 306 306 308 306 302 301 302 304 305 307 309 310 311 311 312 313 314 314 314 314 314 314 315 315 315 315 316 316 317 318 319 319 318 318 318 319 319 319 320 319 321 319 325 339 341 342 345 345 340 331 328 335
302 303 302 302 302 302 302 302 302 302 301 302 302 302 303 303 302 301 301 299 298 298 299 299 299 299 299 299 299 300 303 309 314 312 310 310 309 309 310 307 304 301 302 305 307 309 310 310 311 310 311 314 315 315 314 314 314 313 313 314 314 315 316 316 317 318 318 319 318 318 318 319 319 319 319 319 321 320 321 330 333 333 338 342 342 334 330 336
302 302 303 302 302 302 302 302 302 302 302 302 302 302 302 302 302 301 299 298 297 298 298 298 299 299 299 299 298 300 305 309 309 308 309 311 310 311 309 308 305 302 303 306 308 308 309 309 310 310 310 313 315 315 315 314 314 313 313 313 313 314 315 316 317 318 318 318 317 318 318 318 319 318 319 319 319 321 319 322 330 333 332 337 341 337 334 335
301 301 302 302 301 301 302 302 302 303 303 302 301 302 302 302 302 301 300 298 297 297 298 298 298 298 298 298 298 302 304 305 306 308 310 310 309 309 308 306 304 303 303 306 307 307 307 307 308 309 311 313 314 315 315 315 314 313 312 312 313 314 314 315 317 317 318 317 317 318 319 318 318 318 319 319 318 321 320 320 330 337 336 337 340 338 335 334
301 301 300 301 301 301 301 302 302 302 303 302 301 301 301 302 301 301 300 299 298 297 298 297 297 298 298 298 299 301 303 305 308 308 308 307 307 307 306 305 303 303 303 305 306 305 305 306 307 308 310 312 313 314 315 315 316 314 313 312 313 313 313 315 315 316 317 317 318 317 318 317 318 318 318 318 319 320 320 320 326 334 341 344 343 341 340 339
301 300 300 301 301 301 301 302 302 301 301 301 301 301 301 301 301 301 300 299 298 298 297 297 297 297 298 298 299 301 303 307 307 306 306 305 305 305 305 305 303 303 304 304 305 305 305 305 305 306 307 308 310 312 313 314 315 315 314 313 313 313 313 314 314 315 316 317 317 317 316 317 318 318 317 318 319 320 319 320 320 329 342 346 346 346 343 339
300 301 300 300 301 301 302 302 302 302 301 301 302 302 301 301 300 301 301 299 298 298 297 298 298 298 298 298 299 301 304 307 306 305 306 305 305 305 305 305 304 303 304 304 305 305 305 305 305 304 305 306 307 310 312 313 314 313 314 313 313 313 314 314 314 315 315 316 316 316 316 316 317 317 317 318 319 319 319 320 321 330 342 345 346 346 342 335
299 300 300 300 300 301 302 302 302 302 302 302 303 304 303 302 301 301 301 300 299 298 298 298 298 298 298 297 299 302 304 306 306 305 305 305 306 306 306 306 305 305 304 304 304 305 305 305 305 304 305 306 307 309 311 312 312 312 313 313 314 313 314 314 313 314 314 315 316 316 316 316 317 316 317 318 318 319 318 320 326 331 340 345 344 344 340 334
299 300 300 300 301 302 302 302 302 303 304 304 305 305 304 304 302 302 301 301 299 298 298 298 298 298 299 298 299 302 302 303 304 304 305 306 306 306 306 306 305 306 305 304 303 304 305 305 304 304 305 305 305 308 311 310 310 311 313 314 314 314 314 313 312 313 313 314 316 316 315 315 316 316 317 318 318 319 317 319 328 331 336 344 344 342 339 334
300 300 301 301 302 302 301 302 303 304 305 305 305 305 305 304 304 303 302 301 300 299 299 298 298 299 300 300 301 302 303 302 303 304 305 305 306 306 306 305 305 305 305 304 303 303 303 304 304 304 304 304 304 307 309 308 309 311 313 314 315 314 314 314 313 313 313 314 315 315 314 314 316 316 317 318 318 318 318 317 326 333 334 340 344 341 339 337
301 301 301 302 302 302 302 303 304 305 305 305 305 305 305 304 304 304 303 302 300 300 299 298 299 300 301 303 303 305 306 305 305 305 305 305 305 306 306 305 304 304 304 304 304 303 303 303 304 303 303 304 304 305 307 308 310 312 313 314 315 315 314 313 313 313 313 313 315 315 313 313 316 316 317 318 318 317 318 317 322 334 339 340 343 341 337 336
301 302 302 302 302 301 303 304 304 305 304 305 304 304 304 304 304 304 303 302 301 300 299 300 301 301 302 303 303 306 307 306 307 306 305 305 305 305 305 305 304 304 304 304 304 304 304 303 303 304 304 304 304 305 307 309 311 313 314 314 314 315 314 313 313 312 312 313 314 314 312 314 315 316 317 317 318 317 317 317 318 329 341 342 341 341 337 334
299 300 301 301 302 302 304 304 304 304 304 304 304 304 305 305 305 304 304 302 300 300 300 302 303 303 303 305 304 306 306 306 306 306 306 305 305 305 305 305 304 304 304 304 305 304 304 304 303 304 304 304 305 306 308 311 312 313 315 315 314 314 313 313 313 312 312 313 314 313 312 314 315 315 317 317 318 318 317 318 317 320 331 341 342 341 339 336
298 299 300 301 303 304 304 304 304 304 304 304 304 305 306 306 305 304 303 301 301 302 303 304 304 303 305 306 305 306 306 306 306 306 306 305 306 305 305 305 304 304 304 304 304 304 304 304 304 305 304 304 304 306 309 310 311 312 313 314 314 314 313 312 313 312 312 313 313 314 313 314 316 315 315 317 318 318 317 317 318 316 320 330 336 338 337 337
298 299 301 303 304 304 304 304 303 304 304 304 305 306 307 306 306 305 303 301 302 304 305 304 303 306 308 306 306 307 307 306 306 306 306 305 305 305 305 304 304 304 304 304 304 304 304 304 304 305 305 304 304 306 308 308 307 309 311 314 315 314 314 313 312 312 312 313 312 313 313 313 316 315 314 316 317 317 317 317 318 317 317 320 322 325 329 333
299 300 302 303 303 303 303 303 304 304 304 304 305 306 306 305 305 306 304 303 304 306 308 306 305 309 309 305 306 307 307 307 306 306 306 305 305 305 305 304 304 304 304 305 305 304 304 304 304 305 304 304 303 304 306 306 306 307 309 312 313 314 314 313 312 313 312 312 312 312 313 313 314 314 314 315 316 316 316 318 317 317 317 317 317 318 322 331
299 300 301 302 303 303 303 303 304 305 304 305 305 306 306 305 305 305 304 304 305 306 307 306 305 307 307 305 307 307 307 307 306 306 306 305 305 305 304 304 304 304 304 305 305 304 304 305 305 304 304 303 302 303 304 305 306 308 308 309 311 312 313 313 312 312 312 312 312 312 312 313 314 314 314 314 315 315 314 315 316 316 317 317 318 317 319 327
298 299 300 302 303 303 303 304 305 305 304 305 305 306 306 305 304 305 304 304 304 304 304 305 305 306 306 305 306 306 306 306 306 306 305 305 305 304 304 304 304 305 304 304 304 304 304 305 305 304 304 303 303 303 303 304 305 307 308 308 309 310 311 312 312 312 312 312 312 313 313 313 314 314 314 314 315 315 313 313 315 316 317 317 318 318 318 320
297 298 300 301 303 303 303 304 305 305 305 305 305 305 306 305 304 304 304 304 304 304 304 304 304 305 305 305 306 306 305 305 305 305 306 306 305 304 304 304 304 305 304 304 304 304 304 304 303 303 303 304 303 303 303 303 304 305 306 307 308 308 309 311 312 312 312 312 312 313 312 313 314 314 315 314 314 315 315 314 315 316 316 317 317 318 318 317
296 297 299 301 302 303 304 305 305 304 305 305 305 305 305 305 304 304 304 304 304 304 304 304 304 304 304 305 305 305 305 305 305 306 306 306 304 304 304 303 304 304 304 304 304 304 304 304 303 302 303 304 304 303 303 303 303 304 305 306 306 307 308 309 311 312 312 312 312 313 313 313 314 315 315 315 314 315 316 315 316 316 316 316 318 319 318 318
295 297 299 301 302 303 304 306 305 304 305 305 305 305 305 305 305 304 304 304 304 304 306 306 305 305 305 306 306 305 305 305 306 306 306 306 305 304 303 303 303 303 303 304 304 304 304 303 303 303 303 304 304 304 304 304 303 303 304 305 305 306 307 308 310 311 311 312 311 313 313 312 313 314 314 314 314 315 315 315 316 316 317 316 317 318 318 319
295 297 299 300 302 303 305 305 305 305 306 305 305 305 305 305 304 304 304 304 305 306 307 307 306 306 306 307 307 306 305 305 306 307 306 306 305 304 304 303 304 303 302 302 303 303 303 303 303 303 303 303 303 303 304 304 304 303 303 304 305 306 306 307 308 309 311 311 312 312 311 313 315 313 314 315 315 316 315 315 316 315 316 316 316 317 316 317
295 297 299 300 302 303 305 305 305 305 306 306 305 305 305 305 304 304 304 306 309 310 307 306 306 307 306 306 307 306 306 306 306 306 306 306 306 305 305 304 304 304 303 302 302 302 302 303 303 303 303 303 302 303 303 304 304 304 304 304 305 305 306 307 307 309 310 310 312 311 311 316 319 314 313 316 315 315 316 316 316 315 316 316 316 316 317 316
295 298 300 301 301 303 305 306 305 305 306 305 305 305 305 305 304 304 305 309 312 311 308 306 307 307 306 306 307 306 307 308 306 306 306 306 306 306 305 305 305 304 303 303 303 303 303 303 303 303 302 302 302 302 303 304 303 303 304 304 305 305 306 307 307 307 309 310 311 312 310 313 315 314 314 315 315 315 315 316 316 315 315 316 316 316 317 316
296 299 302 302 302 304 305 306 305 305 305 305 305 305 305 305 305 304 307 311 312 310 309 309 308 308 307 308 308 307 308 308 308 308 306 306 306 305 305 305 304 304 304 304 303 304 304 303 303 303 302 302 302 302 303 303 303 303 304 304 304 305 306 307 307 307 308 310 311 311 311 312 312 316 317 314 314 315 315 316 316 315 315 316 316 316 316 317
297 301 303 302 303 305 306 306 306 305 305 305 305 305 305 305 305 305 307 310 310 310 311 312 310 309 308 309 309 308 308 308 308 308 306 306 306 306 305 305 305 305 304 303 303 303 304 304 303 303 303 302 302 303 303 303 303 303 304 305 304 305 305 306 308 307 307 310 311 311 311 311 312 316 316 314 314 314 315 316 315 315 315 315 316 316 316 317
300 303 304 303 304 305 306 306 306 305 306 306 305 305 305 305 306 309 311 310 310 310 310 311 311 309 309 309 309 308 308 308 308 308 307 306 306 305 305 304 305 306 305 304 303 303 304 303 303 303 303 303 303 303 303 304 304 304 304 304 304 304 304 305 307 308 308 309 310 310 311 312 313 315 314 314 314 314 315 316 316 315 314 315 316 316 317 319
302 304 304 305 305 306 306 306 306 306 306 306 305 305 305 305 307 311 313 309 310 312 310 311 311 310 309 309 308 308 308 308 308 308 309 308 307 307 305 304 305 305 305 305 304 303 303 304 304 304 303 303 304 304 304 304 304 305 304 304 304 304 305 306 307 309 310 309 309 310 311 311 312 313 313 315 316 316 316 316 316 317 315 315 316 315 317 321
304 305 305 306 306 306 307 306 306 306 306 306 306 305 306 308 309 310 311 309 311 312 310 310 310 309 309 308 308 308 308 310 309 309 309 309 308 308 306 305 305 305 305 305 304 303 303 303 303 304 304 304 304 304 304 304 304 305 305 305 304 305 308 309 309 310 310 309 308 310 311 312 313 313 314 315 316 316 316 316 316 317 316 315 315 316 319 325
305 306 307 307 307 307 307 307 306 306 306 306 306 306 308 311 310 308 310 311 311 310 309 310 310 309 308 308 309 309 309 309 309 309 309 308 308 308 306 305 305 305 305 305 304 304 304 305 303 303 304 304 303 303 304 304 304 304 304 305 304 305 309 311 311 311 311 309 309 309 310 312 312 313 316 315 316 316 315 315 316 315 316 316 315 316 321 330
305 306 307 307 307 307 307 307 306 306 306 306 306 307 309 309 309 308 310 310 309 309 309 310 309 308 308 308 309 310 310 310 309 309 309 308 308 309 307 305 304 304 304 305 305 304 304 306 305 303 303 304 303 303 303 304 304 305 304 305 305 305 308 312 312 310 309 310 310 309 312 315 314 317 319 315 314 316 314 315 316 316 316 316 315 319 328 335
306 307 307 307 308 307 307 307 306 306 307 306 307 308 309 308 308 309 310 309 309 309 309 309 308 309 309 309 310 309 309 310 310 308 308 309 308 309 308 306 304 304 304 305 306 306 304 305 305 304 305 305 304 303 303 304 304 305 305 305 306 305 307 311 313 314 315 314 312 311 316 320 317 319 321 316 315 316 315 315 315 315 317 315 315 323 335 340
306 307 307 308 308 307 307 307 307 307 307 306 307 309 309 308 309 310 310 309 309 309 309 309 309 310 310 311 311 309 308 309 308 308 308 308 308 308 307 307 305 305 304 305 307 307 306 305 305 306 307 306 305 305 304 304 304 305 305 305 306 306 306 310 313 317 319 316 315 314 316 316 314 318 318 315 316 316 315 317 315 314 316 315 315 325 338 342
306 308 308 308 308 307 308 308 307 307 307 307 308 309 309 308 308 310 310 309 309 309 309 310 310 310 310 310 310 309 308 308 308 308 308 308 309 308 306 307 306 305 304 305 307 308 307 307 306 306 307 306 305 305 304 304 305 306 306 306 307 307 306 309 311 314 316 316 316 316 315 313 313 322 324 315 315 318 315 317 318 315 315 314 314 324 338 343
306 308 309 308 308 308 308 308 307 307 307 306 307 309 309 309 309 309 309 309 309 309 309 310 309 309 310 310 309 309 309 309 309 309 309 307 309 308 306 307 307 306 305 304 306 308 307 306 307 305 306 307 308 307 306 305 305 306 306 309 313 312 309 310 311 313 315 316 316 315 316 315 314 322 325 315 314 318 316 317 319 318 316 315 314 322 336 344
307 308 310 309 308 308 308 308 307 307 307 308 308 309 310 310 308 308 309 309 309 309 309 310 309 309 309 309 309 309 309 310 310 310 309 307 307 307 307 307 307 306 306 304 306 309 309 308 308 308 308 309 310 310 308 307 306 305 306 309 314 314 312 312 313 313 315 318 318 317 317 318 320 325 322 316 316 317 318 320 321 320 316 315 315 320 333 343
306 309 311 310 309 309 308 308 307 307 308 309 309 309 309 309 308 308 309 309 310 310 310 309 309 309 310 309 309 309 309 310 309 309 310 307 305 307 307 307 307 307 306 305 306 308 310 309 308 308 309 310 311 310 308 307 307 307 307 308 311 313 312 313 314 313 315 320 322 321 319 323 331 333 323 318 317 317 319 322 324 320 316 315 316 318 330 341
304 308 311 309 309 309 308 308 308 308 308 309 309 309 309 309 310 309 309 310 310 310 310 309 309 309 310 310 309 310 310 310 309 309 309 307 306 308 309 307 306 306 306 306 305 307 310 309 308 308 309 309 310 310 308 308 310 310 310 310 311 313 313 314 316 315 313 318 323 324 325 328 333 332 327 323 322 322 322 324 325 320 314 316 318 316 326 338
303 307 309 308 309 309 308 309 308 308 310 310 310 310 309 309 310 309 309 309 310 311 310 309 309 308 308 309 309 309 310 310 310 309 309 309 307 308 308 307 305 305 306 306 307 308 310 311 310 309 308 308 309 310 310 312 315 314 313 312 312 314 314 314 317 320 317 318 321 321 323 331 340 339 331 328 328 326 322 323 326 320 315 317 318 317 325 335
303 306 308 308 308 308 308 309 309 308 310 310 309 308 308 309 309 309 309 310 311 311 309 308 308 308 308 308 308 309 309 309 310 309 309 310 309 308 308 308 307 306 306 308 309 310 311 312 311 309 309 309 310 310 311 313 315 314 313 312 311 313 313 312 315 318 317 318 321 320 318 329 348 348 335 328 327 324 319 319 321 318 315 317 317 319 327 335
303 304 305 307 309 309 309 309 310 308 308 307 306 306 307 308 309 309 309 310 311 311 310 309 308 309 309 307 307 308 308 310 310 309 309 310 310 310 309 309 309 308 307 309 310 310 311 312 311 310 310 310 309 310 312 313 313 313 313 311 312 313 312 313 315 315 316 317 320 324 323 327 338 340 336 329 323 324 323 319 318 317 316 318 319 323 331 337
303 304 303 304 307 309 309 308 308 307 305 304 304 305 307 308 308 309 309 309 310 311 311 310 308 309 308 307 307 308 308 309 310 309 310 311 310 310 310 310 311 310 309 310 309 310 312 312 311 311 311 310 310 311 314 314 313 313 313 312 313 313 312 315 316 316 320 321 320 326 327 328 335 337 337 332 323 323 325 320 318 318 318 321 323 327 334 339
302 303 302 301 302 304 304 304 304 303 303 303 304 305 307 308 308 308 309 309 310 310 310 310 309 309 308 308 309 309 308 308 310 310 311 311 311 311 310 312 312 312 313 312 309 311 313 312 311 311 311 311 311 312 313 313 312 313 313 312 313 313 313 315 316 318 323 323 325 329 327 329 337 337 339 341 334 327 324 321 322 320 320 326 328 330 336 340
302 302 301 301 301 302 302 301 301 301 301 302 304 306 307 308 308 308 308 309 309 310 310 310 310 309 308 308 309 310 309 308 309 310 310 311 312 311 311 312 312 312 313 311 310 312 313 312 311 311 311 311 311 312 312 313 313 313 313 313 313 313 314 316 316 319 321 320 325 332 330 331 337 336 338 343 342 338 330 324 323 322 325 332 333 334 338 340
301 301 300 300 301 302 302 301 300 300 301 302 305 307 308 308 307 307 308 309 308 309 311 311 310 309 310 309 308 309 309 309 310 310 310 311 311 311 312 313 311 312 313 312 313 315 315 315 314 313 313 313 312 313 313 313 314 313 313 314 314 313 315 316 315 317 319 319 323 331 333 335 337 338 339 339 341 346 339 325 323 326 330 335 337 337 339 340
300 301 300 299 300 300 300 300 301 301 301 303 306 308 307 306 306 306 307 308 308 309 310 310 310 310 311 310 309 309 310 310 311 310 310 310 310 311 313 314 313 312 312 314 316 316 315 316 316 314 315 315 314 314 314 314 315 314 314 314 314 314 315 315 315 317 321 324 326 329 333 336 336 338 340 336 333 335 331 324 326 332 334 337 339 339 340 341
300 300 300 299 300 300 300 301 300 301 302 303 305 306 305 305 306 305 306 308 309 309 309 309 310 310 311 312 310 309 308 308 309 310 309 309 310 310 312 314 314 313 313 315 316 315 314 316 316 315 316 317 316 315 316 316 315 315 315 314 315 316 315 315 317 319 323 328 331 330 330 333 336 338 337 332 328 328 327 328 331 335 336 338 339 340 341 342
299 299 299 299 300 300 301 300 299 300 303 303 303 303 304 304 304 305 306 308 309 309 308 309 310 311 311 312 311 310 309 308 309 309 309 309 310 310 311 312 312 312 313 315 316 316 315 316 317 316 316 318 317 315 317 319 317 316 317 317 316 317 316 316 320 322 322 327 333 332 331 332 335 337 337 334 333 334 335 332 331 335 338 339 340 340 341 342
299 299 299 299 300 300 300 299 299 301 303 303 302 302 303 303 304 305 307 308 308 308 308 309 310 311 311 311 311 311 310 310 311 310 309 309 309 309 310 310 310 311 314 316 317 317 316 317 317 315 316 319 317 315 319 322 319 319 321 320 317 317 316 317 323 327 325 327 333 334 334 335 335 336 340 340 337 338 336 331 329 334 338 338 340 341 341 342
Wind_Speed
15 16 15 16 17 16 16 16 16 17 16 16 17 16 15 15 16 14 13 13 11 12 11 10 11 11 11 12 12 12 11 7 5 8 7 7 8 7 4 5 9 10 9 10 11 12 12 10 10 9 9 12 12 15 18 18 15 9 3 5 7 6 7 6 7 7 3 6 7 13 20 8 7 19 21 19 20 17 5 20 22 15 17 26 30 33 33 33
16 16 16 15 16 17 17 16 17 17 17 17 17 17 16 15 15 15 14 14 12 11 10 11 11 12 12 13 13 13 12 9 8 7 5 6 6 4 1 4 8 9 9 7 7 10 11 10 10 8 6 8 10 12 14 15 16 10 3 5 9 7 7 9 9 9 7 9 9 15 24 13 10 14 14 14 15 14 2 14 15 16 19 24 32 37 33 37
16 16 17 16 15 16 16 16 17 17 17 17 17 18 17 16 15 15 14 14 14 12 11 11 12 12 12 13 14 14 12 11 6 2 1 3 5 5 5 7 8 9 7 5 5 9 11 11 8 6 3 6 10 12 11 11 13 12 8 6 10 8 6 12 13 13 14 14 11 16 26 19 17 14 6 10 15 14 1 14 13 19 24 26 35 38 34 40
17 17 17 17 17 16 16 17 17 17 17 17 17 17 17 17 16 15 15 14 14 14 12 12 13 12 12 13 14 13 13 11 1 4 4 3 6 2 5 8 8 9 6 4 5 7 8 9 6 2 3 5 8 12 11 13 12 8 10 8 8 10 8 13 16 18 19 18 16 18 23 22 23 15 6 10 11 10 4 17 18 18 27 35 40 39 36 42
17 18 17 17 17 17 17 17 17 18 17 17 17 17 17 17 17 16 15 14 14 14 14 14 14 14 14 13 13 12 11 7 2 3 4 1 2 5 7 7 8 8 4 2 2 5 5 6 3 2 4 4 5 8 10 17 15 5 10 15 12 11 7 13 21 21 21 21 20 17 16 24 27 15 8 10 6 8 15 10 18 21 28 39 42 41 39 43
17 17 18 17 17 17 17 17 18 19 18 18 18 18 18 17 18 17 15 14 14 14 14 15 15 16 15 14 14 12 6 2 3 4 5 4 6 8 8 8 8 6 2 1 2 2 0 2 3 4 3 2 4 5 7 16 16 6 10 16 17 15 7 13 22 22 24 23 19 19 21 27 26 17 15 14 10 17 26 20 13 23 26 39 43 42 42 43
16 16 17 18 17 17 18 17 18 18 18 18 18 18 18 18 17 16 16 15 14 14 14 15 16 17 17 16 13 9 7 7 7 7 5 4 6 8 8 8 8 5 2 2 2 4 6 7 6 5 4 2 5 5 8 14 16 11 9 11 15 19 15 17 20 21 25 24 23 25 25 23 20 21 20 14 13 22 24 18 13 25 25 39 45 44 45 44
17 17 17 19 19 19 19 18 18 17 17 16 16 17 16 17 15 15 15 14 14 14 14 14 15 17 18 18 13 9 9 6 3 3 4 6 7 9 9 8 6 5 4 2 1 6 8 6 7 5 2 3 6 7 9 10 12 12 10 11 12 16 20 22 22 22 25 26 28 25 20 22 28 27 22 14 18 26 26 20 11 22 24 35 42 44 45 43
19 19 18 19 20 20 20 19 18 17 16 15 14 14 14 14 14 13 13 13 14 13 14 13 14 15 16 17 12 9 4 2 2 1 2 4 6 8 9 7 4 4 5 3 3 5 5 6 10 10 5 6 8 8 10 6 5 7 7 10 10 11 17 20 23 26 26 25 25 18 14 23 33 26 20 25 29 31 32 27 15 18 28 33 35 40 42 41
19 19 19 20 19 19 20 20 19 16 16 16 15 13 13 12 12 11 11 12 13 13 13 12 12 14 14 14 8 4 3 5 4 3 2 3 4 5 6 6 4 4 5 5 5 3 5 7 12 13 8 8 8 7 9 6 5 11 11 11 10 11 17 19 21 26 27 25 25 18 13 22 29 16 13 30 32 26 26 20 14 18 31 36 34 37 40 39
20 20 20 21 20 20 20 19 18 16 16 16 16 15 13 12 11 11 11 11 12 11 12 11 12 14 12 10 6 3 6 6 6 6 6 7 6 5 6 6 6 6 7 8 7 6 6 6 11 12 5 5 9 9 9 7 9 13 13 11 10 11 16 17 18 22 21 19 27 25 16 21 24 13 16 35 37 28 23 12 12 21 29 36 35 36 39 37
21 21 21 21 21 20 20 19 18 17 16 17 17 16 15 14 12 12 11 11 11 10 11 11 11 12 10 10 12 8 7 9 11 13 13 11 10 9 8 9 10 10 10 11 10 8 7 7 9 9 5 7 8 6 8 11 13 13 9 5 7 8 10 14 13 19 16 12 24 23 13 16 18 18 28 40 42 33 25 15 15 24 27 36 37 37 40 37
21 21 21 21 21 20 20 20 19 18 18 17 17 17 16 15 13 13 12 12 11 10 11 11 11 11 8 11 13 8 8 12 14 17 18 15 13 11 9 10 8 8 9 10 10 8 8 8 8 10 10 9 5 6 12 15 13 10 5 1 4 6 8 12 10 14 14 12 20 16 9 14 16 25 36 41 42 31 21 18 17 27 28 35 40 39 39 36
22 21 21 21 21 21 20 19 20 20 19 18 19 18 17 16 14 13 11 12 11 10 11 10 11 7 6 13 11 3 3 6 7 10 14 17 15 12 10 9 5 4 6 8 8 7 6 6 7 10 10 7 7 11 12 10 7 4 3 2 2 4 6 7 8 10 11 14 21 15 8 14 14 24 39 41 39 29 21 23 17 29 31 32 39 42 38 37
22 22 22 22 22 22 21 20 21 21 20 19 19 19 19 17 14 12 11 12 10 9 10 8 9 6 9 17 8 5 3 0 1 2 4 11 10 7 6 5 4 5 6 8 8 7 6 5 7 8 8 8 8 8 5 4 3 0 3 5 4 6 6 4 7 9 9 12 19 15 9 12 11 19 38 42 36 30 26 28 23 25 32 31 34 40 41 39
23 23 23 22 22 22 22 22 21 21 20 18 18 18 16 13 11 11 11 10 6 6 5 4 5 5 8 9 2 2 1 2 2 2 4 2 1 2 2 4 5 5 6 7 8 8 6 6 8 7 7 6 4 2 2 4 4 0 3 6 4 5 5 4 7 9 9 8 13 16 11 9 7 14 28 34 37 37 31 31 32 24 29 35 34 38 42 40
24 24 23 23 23 23 23 22 21 20 17 16 17 14 11 9 7 8 9 7 5 3 2 1 4 5 9 5 2 4 3 2 1 4 3 2 3 1 2 4 6 6 6 7 8 9 8 6 5 4 4 2 0 1 1 3 5 3 3 3 4 4 3 4 6 8 9 8 12 17 15 10 5 8 17 24 34 39 34 31 34 31 26 32 37 39 42 41
24 24 23 23 24 24 24 21 18 16 14 14 15 11 10 10 8 5 5 4 5 2 2 3 1 3 6 2 2 6 6 6 6 3 6 2 1 3 2 2 4 5 5 4 5 8 9 5 3 2 2 1 2 2 4 7 7 6 5 2 2 3 5 6 6 6 8 10 13 15 15 15 9 6 11 21 30 33 34 34 33 35 31 26 31 37 40 42
23 23 23 23 25 25 22 19 14 12 13 12 10 6 6 10 10 7 5 2 4 2 2 6 7 4 4 4 7 11 9 8 10 7 7 6 3 7 7 1 1 4 2 4 2 6 8 3 2 3 3 5 6 6 8 9 6 5 5 2 3 5 6 8 7 7 8 9 13 15 14 13 13 12 11 17 23 23 30 36 33 33 35 29 27 30 36 43
23 23 23 23 25 24 20 15 10 11 13 13 12 7 7 12 8 5 10 14 13 12 15 15 14 17 19 19 19 15 11 9 11 11 8 10 7 9 10 4 2 2 0 2 1 3 6 3 3 6 8 8 7 7 8 7 5 5 5 3 6 7 7 8 8 10 10 9 11 15 15 12 12 15 15 19 20 14 17 26 29 31 34 34 30 28 31 38
23 23 22 23 24 22 18 12 8 9 11 13 16 13 10 11 5 5 15 19 19 19 23 24 22 26 28 26 24 18 16 15 17 17 12 12 11 8 9 8 3 1 3 3 1 4 2 3 7 10 9 7 5 5 6 7 6 6 6 5 6 7 8 9 9 10 10 11 11 11 13 14 14 13 15 20 17 13 14 17 23 29 32 35 36 32 30 30
23 23 23 23 22 20 15 10 7 8 8 10 13 13 10 9 7 10 14 15 21 23 21 23 23 29 31 28 26 20 16 16 19 20 14 11 13 11 9 8 4 2 4 3 0 4 3 5 11 10 5 3 5 7 7 7 6 6 6 5 6 6 7 9 11 12 10 9 11 10 10 12 14 12 12 16 16 21 26 22 23 29 31 34 38 38 33 25
23 23 23 22 21 18 13 9 7 5 6 9 12 12 10 8 9 14 13 11 20 21 14 15 19 26 28 25 22 19 17 14 16 19 14 10 16 15 10 6 4 5 4 4 4 3 4 7 8 5 4 5 7 8 7 7 5 5 6 5 7 7 6 7 9 12 12 9 10 10 9 8 9 11 12 17 21 26 32 31 29 31 31 33 36 40 38 27
23 23 22 22 20 16 11 8 6 4 3 8 11 10 8 9 12 16 14 6 9 11 7 5 8 14 14 10 8 12 18 16 12 12 9 11 18 15 10 8 6 4 4 6 7 7 9 9 5 3 5 7 8 8 7 5 4 6 7 7 7 8 10 9 8 11 12 11 10 9 8 7 9 13 12 15 20 22 28 32 32 31 31 32 32 35 38 34
23 23 22 21 18 13 10 7 5 3 2 6 9 9 10 12 13 16 12 3 5 7 4 2 1 3 3 3 2 8 14 14 15 12 8 12 17 12 9 10 7 4 6 8 7 7 10 12 9 7 6 7 7 7 6 5 4 6 8 9 10 11 12 11 12 11 8 9 9 7 8 7 8 13 11 10 13 16 21 24 27 31 32 30 30 31 33 35
24 23 22 20 17 11 8 7 7 4 1 3 7 9 11 12 13 15 9 1 3 3 1 2 1 1 2 1 4 6 6 6 12 15 13 13 14 11 9 7 5 5 7 6 5 5 6 7 7 7 7 8 8 7 6 6 5 6 6 8 10 12 12 13 14 12 5 6 9 6 8 6 5 9 12 10 13 15 16 17 22 31 34 31 31 32 31 32
24 24 22 18 14 9 6 6 9 7 4 6 8 8 11 12 14 15 6 2 2 1 1 0 1 1 1 2 3 3 3 2 5 11 14 14 13 12 9 5 4 5 6 4 3 4 4 6 6 7 7 6 6 7 6 6 5 6 6 7 9 12 13 14 15 12 6 6 10 10 8 6 5 7 10 13 15 15 16 16 17 25 32 33 33 34 34 34
24 23 21 16 10 7 6 6 9 10 8 8 8 9 11 13 14 10 2 3 3 2 1 1 0 2 2 6 7 4 7 8 4 6 11 12 11 10 8 6 6 5 6 5 5 3 4 6 8 8 7 5 5 6 6 6 6 7 7 7 9 10 12 13 12 11 8 6 9 12 9 6 6 6 7 12 17 18 19 20 16 17 26 33 35 36 36 37
23 21 18 11 7 6 5 5 8 10 9 10 11 11 11 13 12 4 3 1 3 2 2 2 1 3 6 7 6 7 10 9 5 4 8 9 9 8 4 1 2 3 5 8 9 5 3 6 8 7 5 6 6 6 5 5 7 8 8 8 9 10 11 11 10 9 7 5 10 15 10 5 5 5 6 10 15 18 18 17 15 16 24 32 37 37 36 36
20 17 13 7 5 6 4 5 8 9 10 13 15 13 11 10 5 2 2 0 1 3 3 1 1 5 7 6 6 7 7 10 11 8 7 7 8 7 2 3 4 2 3 5 9 6 2 5 6 5 6 7 7 7 7 8 8 6 7 8 8 9 9 8 8 6 6 7 13 19 14 7 6 5 8 10 12 14 13 12 13 15 22 32 37 38 36 35
16 12 8 4 5 5 4 5 8 9 12 14 16 14 9 5 2 4 2 1 1 4 4 2 3 4 5 4 6 7 5 7 8 8 7 4 4 1 2 2 1 1 3 5 6 4 3 6 5 5 9 7 5 6 7 8 7 3 4 5 4 6 6 5 7 6 6 8 13 18 16 11 8 7 8 10 9 11 13 15 16 15 20 32 36 34 35 37
13 7 3 4 5 5 5 5 7 9 12 14 16 13 5 3 4 1 1 3 2 1 2 3 3 3 6 7 7 6 4 3 4 6 5 4 3 2 2 3 3 3 4 5 4 3 4 7 5 6 10 9 5 4 5 5 5 4 4 4 4 4 4 4 6 5 6 10 13 14 12 10 11 8 9 12 12 13 14 16 19 19 24 34 33 29 33 38
10 5 2 3 4 4 5 5 7 9 11 15 16 9 2 4 3 2 2 3 2 2 3 4 5 6 8 8 6 4 2 3 4 4 4 4 4 4 5 7 8 6 4 5 4 3 4 5 6 8 8 11 10 5 4 4 5 7 6 5 5 5 5 6 5 6 8 10 13 14 9 7 9 6 10 16 15 17 18 21 28 31 34 36 31 31 36 40
8 5 3 3 3 4 4 4 7 9 10 15 12 4 4 4 1 3 3 2 2 4 4 3 8 11 8 5 4 1 0 4 3 2 3 3 2 3 3 6 11 9 4 3 3 4 4 5 6 8 5 8 13 11 9 6 4 7 7 6 7 6 5 5 4 7 8 6 10 13 8 5 6 5 11 15 15 20 25 30 35 37 40 39 32 33 38 41
7 5 4 4 3 4 4 4 6 7 8 12 7 4 4 2 2 2 2 2 2 5 6 6 9 9 5 4 4 1 2 3 3 1 3 4 3 4 3 6 11 10 5 4 3 4 6 6 6 9 5 5 9 13 14 10 5 5 6 5 7 8 6 5 4 7 6 4 7 9 6 5 5 6 10 15 16 18 21 26 30 31 37 35 28 33 39 41
6 6 4 3 3 4 4 5 5 5 5 8 5 2 1 1 3 1 1 2 3 5 8 9 6 4 3 2 2 1 3 3 4 4 4 5 5 6 5 5 9 12 9 6 3 3 5 6 4 7 5 6 11 13 13 12 7 4 6 7 8 10 9 6 6 5 6 5 6 5 4 5 6 7 9 16 16 16 17 19 19 23 30 27 25 34 40 41
6 8 6 3 3 4 2 4 4 1 3 5 3 1 2 2 3 2 1 4 6 5 5 5 2 2 3 2 2 3 1 2 3 2 2 3 4 6 7 6 8 15 14 10 4 2 4 4 3 6 7 10 18 19 15 17 13 5 5 9 8 10 10 6 5 4 5 5 5 5 6 7 7 6 7 15 18 18 19 16 12 15 20 19 24 35 41 43
10 10 4 0 4 3 3 3 3 3 2 3 1 4 2 3 3 3 3 4 4 4 2 3 1 2 2 2 3 4 3 3 2 2 2 3 3 4 6 6 8 15 18 15 6 2 3 4 4 7 8 6 10 12 10 16 19 11 6 6 4 5 8 5 4 4 4 5 4 6 8 8 7 5 6 13 18 18 18 13 9 10 12 16 24 34 41 45
11 8 5 3 5 4 2 1 4 4 2 2 2 3 2 4 5 9 8 4 2 3 3 3 2 2 3 3 5 6 5 6 5 3 2 3 3 4 5 5 6 11 17 16 7 1 3 2 3 3 4 2 2 4 5 8 13 13 10 5 2 3 4 4 5 5 4 5 4 5 7 6 6 6 8 13 16 17 13 8 9 9 12 20 27 33 39 43
11 5 4 6 5 3 4 1 4 2 1 1 3 3 4 4 7 13 12 6 4 3 3 3 3 3 3 4 6 6 4 6 6 2 2 3 3 6 6 6 4 7 14 16 8 3 3 1 4 2 2 1 1 3 6 6 7 8 9 7 4 4 4 3 5 6 4 4 3 4 5 5 6 5 9 13 15 14 11 10 10 10 16 26 31 35 41 43
13 4 3 5 4 5 6 3 2 2 1 2 3 3 5 5 6 11 12 8 6 6 7 5 4 4 4 4 5 4 3 4 4 2 3 3 3 3 5 5 4 4 9 11 7 5 3 1 4 4 3 2 3 5 8 9 8 7 7 7 6 6 4 2 4 5 4 5 4 4 3 6 6 4 6 9 10 8 9 12 11 12 21 30 34 40 45 45
14 4 2 3 5 7 7 4 2 2 2 3 5 6 8 7 6 9 10 8 6 6 7 5 4 5 4 4 4 4 3 3 3 3 2 3 4 5 8 10 8 6 6 6 5 6 4 2 2 4 6 6 7 10 10 8 7 4 4 7 6 4 4 3 4 4 3 4 3 4 3 6 6 5 6 7 7 8 10 12 10 13 25 32 34 40 47 48
14 6 5 4 5 6 4 2 3 1 2 6 9 10 12 9 6 8 8 6 4 3 4 3 4 5 4 4 4 4 3 3 4 4 3 3 5 9 14 18 14 6 4 3 4 5 4 2 2 4 5 6 7 9 8 7 5 1 4 6 6 5 6 6 6 4 4 6 4 3 5 7 6 5 6 6 5 7 10 13 11 12 21 29 34 40 44 45
15 8 6 7 2 5 2 1 3 4 4 8 9 11 12 8 6 8 8 5 3 2 2 3 5 5 5 5 4 4 4 3 3 5 5 3 4 10 16 18 13 4 4 6 7 5 3 2 2 3 2 2 2 2 3 4 3 2 4 6 7 8 9 8 7 4 4 8 6 5 4 7 6 5 6 7 4 6 8 14 16 16 19 25 32 38 41 42
13 6 5 9 5 4 3 2 3 4 6 8 9 10 9 6 7 12 13 10 7 4 3 5 7 7 6 6 5 5 5 4 4 3 3 2 5 10 13 17 15 5 3 11 16 9 2 2 2 3 1 2 2 2 2 2 2 2 4 7 8 8 9 7 5 3 3 6 5 5 4 6 6 7 8 8 5 7 7 11 16 21 25 29 33 36 38 39
9 3 5 13 9 1 3 6 5 4 4 7 8 6 6 6 8 14 14 10 8 7 6 6 7 5 6 6 4 4 4 6 7 4 3 4 4 6 14 22 15 5 17 22 21 10 0 2 4 5 4 3 3 4 3 2 1 3 4 6 6 7 8 7 5 4 4 5 5 3 4 2 7 7 6 8 6 6 8 8 10 16 24 30 34 37 38 40
6 2 3 8 8 5 7 8 8 7 7 6 4 4 7 8 8 11 11 8 9 8 5 4 3 3 5 5 3 3 3 4 6 4 5 6 4 6 16 20 6 15 22 18 14 7 1 2 6 7 7 6 6 6 5 4 5 6 6 5 5 6 7 6 6 6 4 3 5 6 1 2 4 7 6 8 6 4 7 7 9 17 25 29 32 35 37 38
7 2 3 5 4 3 5 9 13 14 13 9 3 4 7 9 9 10 8 8 11 9 3 3 4 6 9 7 3 3 3 2 3 3 4 5 4 6 9 9 9 12 12 7 4 4 2 3 4 4 5 7 7 7 7 7 8 7 7 5 6 7 6 5 8 9 6 3 4 7 4 2 4 7 6 7 8 5 6 8 13 22 29 30 31 32 33 35
8 4 4 7 6 6 8 15 19 14 11 9 4 3 7 11 12 11 9 8 9 8 6 7 10 12 13 9 2 2 2 3 3 2 2 4 5 4 4 4 6 6 5 3 1 2 2 2 3 2 5 6 5 6 8 8 7 5 5 6 6 6 5 7 11 10 6 4 2 4 6 4 4 6 7 8 8 3 8 12 15 22 28 29 29 30 31 34
9 6 8 11 8 10 13 15 14 9 7 7 4 4 8 10 12 14 13 10 8 7 9 12 14 15 14 10 4 4 4 5 6 5 3 4 4 2 1 2 3 5 3 1 1 0 2 1 2 2 4 4 3 4 3 4 4 4 4 4 2 2 5 7 9 6 4 5 2 1 6 6 3 5 6 6 5 7 10 13 15 20 28 32 28 27 31 35
10 8 9 10 6 7 9 10 9 5 4 4 5 7 9 10 13 15 13 11 9 9 11 13 15 13 10 10 8 5 6 7 9 11 10 8 7 5 3 2 4 6 5 1 1 1 1 1 3 4 3 4 3 6 5 0 1 1 2 2 1 2 4 6 7 4 2 4 1 2 2 5 4 4 4 4 9 11 8 7 12 16 25 32 32 30 31 34
12 10 10 8 5 4 7 8 8 5 3 5 8 9 10 12 16 15 9 8 13 19 19 16 14 11 8 9 11 13 16 15 14 15 15 14 14 13 12 11 9 6 4 2 2 1 2 1 2 2 3 4 5 8 7 2 4 3 4 3 2 2 4 6 7 6 5 4 2 2 3 6 7 4 2 6 9 9 7 6 11 13 17 25 33 36 37 37
Wind_Direction
351 350 350 347 343 341 341 341 340 338 337 336 335 336 335 332 331 331 333 333 335 337 343 0 10 10 3 352 345 344 347 340 305 297 272 239 246 256 276 300 305 305 298 287 265 238 225 223 213 207 218 216 215 220 213 211 211 201 190 211 222 216 206 186 186 203 210 260 258 262 270 267 282 291 298 312 310 295 202 164 168 169 188 177 165 159 161 164
351 350 350 346 340 338 339 341 338 335 335 335 334 334 334 332 330 330 330 330 332 337 342 355 5 4 359 353 346 344 348 342 323 307 266 243 245 229 27 348 334 322 311 300 262 230 213 199 190 188 216 226 216 215 213 212 209 202 184 205 224 215 197 190 195 211 211 248 268 269 270 269 262 280 306 310 300 301 60 141 151 139 161 169 160 160 165 168
350 350 349 344 337 335 336 337 336 332 331 331 330 333 332 329 329 328 327 328 331 334 340 349 353 352 353 352 343 342 345 340 336 35 92 214 176 128 45 9 347 326 318 302 233 209 199 189 184 190 225 241 224 215 211 207 205 212 208 215 227 207 200 203 203 216 221 243 265 273 273 271 262 263 293 295 296 305 113 139 140 131 149 164 162 164 168 170
349 349 346 340 335 335 333 331 330 326 323 324 325 327 328 328 327 325 324 327 329 332 338 342 341 339 344 346 340 340 343 338 323 100 57 124 143 128 350 350 341 331 325 293 222 197 200 198 192 216 249 253 237 226 221 207 201 210 208 223 226 197 208 209 207 221 225 238 249 262 273 272 269 262 252 267 288 306 214 160 155 150 162 166 166 169 170 172
350 348 342 337 334 332 328 324 323 320 319 322 324 324 325 326 325 323 322 324 326 329 334 334 333 330 332 337 335 334 341 347 159 107 18 311 255 284 313 329 329 334 335 321 212 195 207 211 217 268 250 243 235 230 233 218 212 231 227 231 226 200 206 209 211 223 227 237 247 257 263 266 272 269 246 242 243 272 273 229 171 173 178 171 170 172 172 173
349 345 340 337 332 329 325 319 319 320 323 324 324 324 324 324 324 323 322 323 322 324 328 328 327 324 325 329 330 329 337 347 241 283 318 295 280 283 305 317 315 323 323 87 126 150 239 293 294 263 231 239 236 230 248 232 221 240 247 236 231 221 216 213 214 218 226 232 240 249 253 263 274 276 260 241 243 256 276 289 196 187 191 177 175 175 176 176
342 340 337 337 333 332 330 325 323 325 327 326 323 321 321 322 321 320 320 320 318 318 320 322 325 323 321 322 324 318 286 277 274 275 292 287 278 285 303 309 305 298 252 162 110 16 346 333 325 268 226 243 261 248 258 252 237 237 246 243 236 232 230 227 224 219 223 227 234 243 250 259 265 270 267 236 245 255 267 291 195 187 194 180 179 180 181 181
337 333 331 335 335 333 331 329 328 327 327 326 325 321 318 317 315 315 314 312 310 308 310 315 321 320 321 322 328 325 292 283 295 282 286 288 292 295 296 300 299 270 238 186 343 338 331 335 355 328 255 247 268 260 259 264 255 246 243 251 247 238 237 235 237 235 231 231 235 243 249 251 250 259 272 255 257 261 261 278 221 188 190 180 181 183 181 181
336 332 329 333 334 333 331 330 329 329 329 326 326 325 322 316 312 311 307 305 302 297 299 303 308 311 314 314 323 333 303 138 104 344 323 304 312 311 306 314 311 265 237 211 261 307 325 341 352 348 328 285 277 268 267 259 255 268 270 269 259 248 246 235 235 238 239 239 235 241 248 248 251 256 275 266 262 266 262 270 260 197 187 184 184 182 180 180
337 334 331 331 333 332 332 331 330 332 331 327 328 331 327 317 310 304 296 293 289 287 287 285 290 292 294 299 316 331 219 170 189 189 181 262 295 311 310 321 302 271 259 241 231 255 315 331 331 329 315 297 297 280 268 255 283 307 315 311 291 275 265 243 233 232 234 241 236 238 248 249 254 255 271 265 260 264 265 266 254 204 184 186 188 184 183 184
338 335 333 333 334 332 332 331 331 333 330 329 330 331 326 315 304 293 284 277 274 277 276 274 279 275 281 289 280 255 206 200 223 218 230 242 242 257 265 283 286 280 278 269 244 239 280 306 323 323 317 322 323 308 284 288 322 322 323 321 303 293 280 258 242 231 226 234 233 235 251 254 257 250 247 258 260 259 268 270 216 203 187 185 189 188 190 189
340 337 335 335 334 333 332 332 334 335 332 332 330 328 324 314 303 293 287 280 278 278 275 279 280 275 289 276 253 257 234 228 241 236 237 237 234 244 260 277 281 274 277 285 270 250 256 279 317 322 319 330 327 316 303 313 329 327 326 317 292 300 284 262 251 239 230 225 227 228 248 252 248 246 243 250 257 257 263 266 195 195 195 185 188 191 191 192
340 337 335 333 333 331 331 335 338 336 333 333 329 325 319 311 304 299 297 292 289 288 287 288 286 288 289 269 271 293 267 245 243 238 235 234 235 246 269 280 280 273 276 291 291 278 259 264 300 307 308 316 301 290 304 315 326 323 319 311 285 295 265 250 250 245 239 229 219 210 230 241 233 243 245 245 253 255 257 262 200 186 199 190 189 193 191 195
339 337 335 333 333 333 334 338 338 334 333 332 328 321 314 310 304 302 297 289 287 287 289 289 291 293 253 272 302 349 232 236 232 240 237 233 238 248 265 276 284 295 291 296 310 319 292 273 296 300 298 291 288 302 309 315 325 326 303 278 218 246 248 238 231 231 237 232 215 201 225 236 226 237 243 244 249 254 253 260 219 182 194 192 188 192 192 198
341 339 337 336 337 338 339 340 336 333 334 332 326 318 314 311 302 295 281 274 276 277 283 289 291 284 263 283 307 121 147 301 289 321 223 223 236 253 265 272 274 279 283 286 296 312 312 298 294 295 295 292 300 313 325 328 321 56 254 255 202 216 252 266 242 222 224 233 210 203 234 236 226 230 238 241 245 253 253 255 244 194 189 192 189 191 194 200
344 341 340 341 341 343 343 341 337 334 336 335 327 325 329 320 296 279 269 266 267 268 277 312 313 280 269 291 349 109 339 12 5 67 120 153 10 355 319 291 276 266 267 269 274 285 288 284 281 280 290 301 316 338 1 335 305 237 205 238 235 223 241 256 261 237 218 231 213 213 230 230 230 224 229 233 235 244 250 250 253 230 197 192 193 194 196 201
344 341 341 342 342 344 345 341 337 337 343 342 332 341 5 357 319 288 271 256 242 236 230 348 350 284 265 277 20 355 351 24 29 151 157 348 351 359 357 300 282 267 261 268 270 263 247 247 259 266 274 254 175 80 57 272 261 257 221 237 263 246 244 235 259 255 219 218 222 225 232 227 229 219 213 215 221 233 244 246 249 248 224 197 196 200 201 205
343 340 341 343 343 346 346 342 339 345 356 352 345 3 29 19 9 341 290 243 216 204 224 211 168 289 269 240 344 350 0 350 336 227 204 231 186 198 224 319 292 267 280 304 273 230 220 229 199 215 295 210 194 159 186 222 222 227 229 217 296 258 251 243 246 256 226 223 229 232 235 231 231 235 216 210 212 221 236 244 245 247 242 216 200 200 202 205
343 341 344 345 345 347 346 344 348 2 7 5 5 19 24 13 24 34 11 316 220 204 261 216 192 245 274 261 299 322 327 318 325 306 230 214 192 196 213 264 290 254 318 19 293 206 188 205 174 184 253 222 208 203 210 227 224 234 248 223 252 254 249 249 251 253 242 236 234 234 238 233 226 232 235 227 222 217 226 238 242 242 244 235 215 202 199 200
343 343 346 345 345 347 348 349 3 17 14 18 25 33 20 5 12 21 338 309 279 267 268 257 243 257 268 272 281 299 304 289 306 311 267 238 225 201 210 204 146 243 283 102 252 222 178 183 218 210 223 221 218 228 238 261 290 304 303 279 258 258 255 250 248 248 245 247 243 235 239 240 228 225 228 233 236 231 223 231 236 236 240 240 229 212 200 198
343 344 346 344 345 349 351 354 10 21 20 25 25 26 24 11 4 326 324 309 293 283 271 265 256 256 265 271 274 289 302 292 290 293 279 244 222 201 203 190 151 255 220 177 222 284 243 197 229 227 223 225 233 255 268 281 293 291 285 282 269 256 260 260 256 253 243 244 250 240 234 235 231 227 225 225 230 238 226 221 227 229 235 241 237 227 213 204
345 344 344 342 345 350 354 357 7 18 24 27 23 25 27 14 347 326 328 311 300 297 281 270 257 253 262 267 267 276 286 285 281 280 273 234 210 196 189 178 159 199 201 161 202 303 301 239 243 243 233 227 236 250 261 266 270 269 263 267 265 260 273 272 266 267 256 242 247 245 238 235 229 224 223 219 218 229 230 222 220 221 226 232 235 235 230 216
346 344 342 340 343 351 359 1 4 12 31 39 29 24 22 1 328 315 320 310 301 303 290 271 252 248 258 264 264 257 252 260 271 273 269 222 200 197 193 175 168 193 179 148 172 227 255 247 247 243 229 224 232 239 243 254 259 252 251 250 253 259 265 266 262 266 270 263 250 246 248 247 233 224 220 216 215 224 231 233 229 222 220 224 227 231 233 227
345 344 340 338 342 352 5 7 8 4 31 43 29 14 1 343 323 316 323 316 293 306 317 293 246 244 258 275 272 232 228 236 247 263 263 216 205 204 200 184 180 196 185 183 192 210 237 251 256 230 221 220 231 239 230 236 253 248 249 247 252 256 251 259 278 280 286 280 256 242 252 251 225 222 222 216 217 222 226 232 236 230 225 227 227 228 231 231
345 343 339 336 339 353 8 14 20 16 29 38 20 358 337 327 318 321 333 333 274 297 342 37 191 244 299 320 270 213 219 229 232 242 252 227 211 201 202 195 188 199 195 200 206 220 240 246 245 247 245 234 233 239 225 216 242 253 246 244 252 261 260 264 273 274 286 284 258 223 234 254 229 221 223 217 219 226 224 226 231 232 230 228 227 229 229 229
344 340 337 333 336 350 11 23 18 8 14 12 355 338 328 326 322 323 333 17 298 293 329 58 154 298 3 295 246 220 220 227 231 238 246 243 224 211 219 203 185 206 195 193 211 230 236 215 208 227 241 242 240 239 224 205 230 253 238 240 251 259 264 263 262 260 248 267 274 245 229 259 265 223 213 212 219 223 224 226 227 228 230 227 226 230 230 227
342 338 335 332 333 349 9 20 14 5 339 325 326 325 327 327 323 322 330 85 15 330 280 64 114 83 97 324 307 214 225 285 265 252 243 245 239 223 225 213 196 210 181 171 229 220 194 183 197 224 235 240 239 239 223 197 223 252 236 236 249 253 255 254 256 258 256 277 289 279 254 245 252 231 207 204 217 222 221 223 224 223 225 227 229 229 228 226
342 336 334 333 332 349 356 356 8 9 355 337 326 321 324 320 316 322 40 96 3 353 332 287 55 51 3 337 328 283 287 299 295 252 230 236 241 218 216 228 223 218 184 190 237 215 155 183 204 216 227 236 233 234 226 209 233 255 244 238 248 255 257 256 256 256 263 286 281 273 264 241 240 242 214 202 211 220 219 218 219 220 222 226 230 228 225 224
342 336 336 336 337 358 357 344 1 6 358 348 337 328 325 316 313 327 110 77 330 328 338 319 333 351 348 346 319 292 297 282 246 211 201 213 232 215 203 284 300 259 217 211 238 241 173 203 209 197 209 226 227 228 222 224 245 258 255 245 249 263 267 263 259 253 254 255 256 259 255 245 253 235 207 209 212 216 217 217 216 214 218 223 227 226 222 218
341 336 339 343 347 358 359 346 353 357 353 346 338 334 329 315 316 64 62 356 289 305 328 335 307 333 351 357 307 290 282 259 252 244 217 205 224 219 184 16 10 344 271 251 253 258 253 248 239 214 221 227 226 227 218 226 248 277 280 254 244 254 260 267 265 249 239 237 246 253 250 247 268 239 207 213 216 212 210 213 215 213 217 222 225 225 220 211
342 340 350 3 355 351 345 341 341 349 356 349 338 334 331 324 63 86 46 296 262 312 336 320 284 322 345 341 304 292 275 261 252 234 226 213 219 240 56 357 328 221 275 279 270 280 283 264 257 232 234 228 220 226 220 226 240 268 283 262 247 243 245 262 258 225 217 235 238 244 249 247 248 244 228 223 212 205 202 204 207 209 218 224 225 221 214 207
344 342 357 4 359 352 339 328 330 349 359 348 335 330 334 36 41 65 281 326 315 308 335 293 281 324 316 307 294 279 273 271 225 206 216 205 200 208 172 185 174 185 241 247 251 279 260 248 250 250 243 226 211 222 221 230 237 226 232 243 240 229 219 233 236 210 214 237 238 235 240 246 246 247 240 230 208 199 203 203 201 204 217 224 221 211 205 201
341 329 309 342 1 357 343 324 331 359 4 345 333 327 34 78 30 297 293 313 254 263 319 303 297 304 302 299 285 269 264 256 231 210 205 194 211 230 210 191 173 178 220 221 217 244 271 272 250 247 247 224 213 212 209 213 217 218 213 212 219 210 205 217 211 206 218 232 239 234 229 245 258 255 228 221 205 195 197 198 201 206 215 221 215 202 199 196
337 324 292 317 347 355 354 319 332 4 0 340 338 1 55 58 285 290 306 270 252 301 315 313 308 300 289 270 254 238 43 266 250 190 186 182 208 234 228 200 186 188 213 215 201 200 232 274 233 218 221 207 209 211 210 210 207 217 211 210 230 227 223 223 196 209 222 227 235 230 221 223 237 233 217 211 202 196 193 197 203 208 215 220 212 196 193 192
336 330 300 310 326 345 358 313 332 14 353 337 357 64 55 33 260 294 297 263 301 312 298 300 306 296 283 257 244 174 129 262 295 263 216 193 196 214 211 204 194 190 194 202 205 182 214 251 220 205 215 203 212 212 205 207 215 220 208 208 231 232 236 251 230 215 200 202 234 225 215 226 240 243 213 199 200 198 193 198 204 209 216 217 201 186 188 189
331 333 314 267 282 327 342 306 331 24 345 347 32 59 344 221 248 275 320 311 304 295 300 302 286 264 294 302 263 221 160 229 306 310 241 209 222 218 206 212 192 187 190 194 205 163 201 246 194 182 227 229 229 230 207 200 207 201 200 215 237 240 243 253 254 229 163 183 243 233 223 245 260 266 219 193 195 199 201 204 202 207 214 209 186 181 185 185
340 338 321 250 296 327 272 279 315 340 331 17 62 279 265 232 257 244 254 305 293 278 295 305 259 221 293 308 285 284 211 224 275 285 230 213 238 220 213 226 193 190 195 189 203 198 197 253 210 191 233 233 232 237 215 198 202 191 191 210 227 241 244 246 260 252 161 182 244 224 216 230 236 263 228 191 190 200 208 206 197 202 205 194 181 182 184 184
344 350 6 239 318 309 227 251 258 235 315 30 329 279 258 223 251 255 257 283 292 280 276 288 247 181 259 281 289 281 259 251 236 210 223 224 236 207 199 215 202 199 198 189 197 233 193 252 263 222 233 247 241 235 207 196 202 205 215 212 187 215 238 236 249 256 186 189 247 215 208 219 219 236 222 194 191 200 208 203 194 199 194 185 183 182 183 184
342 357 46 18 316 310 339 250 215 233 332 28 263 278 254 236 267 283 277 251 237 270 260 263 241 206 246 265 281 284 264 260 262 245 219 202 233 241 207 203 210 203 194 188 190 176 163 229 282 210 184 198 250 211 188 199 201 206 226 234 149 179 234 223 225 250 216 200 234 211 203 225 230 214 197 193 195 199 199 193 197 198 190 189 184 180 182 183
358 10 41 1 328 314 352 330 218 224 358 251 233 253 272 274 284 287 277 237 208 238 230 244 249 245 259 252 267 282 264 256 264 259 213 192 234 269 239 204 210 204 190 185 179 149 124 201 251 254 113 113 288 208 197 204 198 204 216 216 205 220 243 245 236 246 220 192 206 196 205 245 253 210 183 193 204 198 181 180 198 200 194 193 186 180 182 182
13 28 30 354 320 293 316 317 250 210 188 257 241 243 279 276 279 290 279 246 229 230 229 247 263 268 282 272 275 285 270 262 260 248 250 224 214 274 254 211 195 189 186 184 182 172 148 166 235 273 317 269 246 234 218 204 196 200 204 204 210 218 225 257 264 253 217 198 196 180 214 262 256 212 179 194 207 200 182 184 195 199 196 195 188 182 182 182
9 20 35 330 265 283 308 306 268 213 199 280 276 271 288 282 275 295 289 261 241 227 227 241 254 259 261 260 275 277 261 271 264 241 255 254 229 237 256 258 244 208 186 184 176 163 142 129 224 257 265 247 240 242 226 184 165 182 204 207 212 226 218 203 246 266 251 235 213 177 230 268 262 229 203 202 197 191 197 195 191 196 196 193 186 181 182 183
356 352 29 18 259 272 311 300 304 312 241 281 289 290 297 293 280 297 300 280 256 219 219 236 243 247 236 237 272 272 255 264 242 233 262 270 243 240 258 273 269 225 166 139 144 146 124 111 239 259 271 269 265 251 218 147 118 153 218 216 216 235 240 239 257 283 302 280 248 173 222 258 281 276 248 237 198 168 193 199 181 178 187 184 178 177 180 181
345 329 11 25 288 251 307 308 299 321 306 304 310 310 306 293 276 298 302 284 259 205 206 256 236 228 232 234 242 248 267 280 233 237 262 255 266 273 274 284 290 262 185 168 155 161 156 143 237 272 302 307 294 256 199 149 148 184 209 218 219 233 251 271 279 272 272 263 226 150 199 244 278 319 306 282 227 154 189 199 175 159 164 169 170 174 176 175
348 328 336 355 333 233 257 322 313 317 326 329 323 313 309 299 294 306 302 285 268 221 201 256 238 230 253 251 239 249 256 255 245 264 289 265 276 283 288 299 306 312 136 140 136 137 167 160 202 243 186 142 147 172 182 179 191 198 211 217 219 231 239 252 275 264 254 264 231 162 190 251 296 347 341 305 244 176 198 203 176 158 156 161 166 170 171 169
1 354 323 339 351 358 297 326 349 350 333 334 322 302 308 309 303 312 311 296 273 238 225 257 250 242 268 264 256 266 246 232 239 264 309 295 280 290 306 309 301 139 118 123 132 132 196 187 205 230 209 186 208 219 214 203 232 243 243 234 229 236 240 246 267 258 256 297 290 229 180 255 317 337 336 309 276 204 204 200 168 148 151 160 167 170 169 168
17 33 1 346 344 350 344 345 3 353 317 318 316 278 302 309 307 325 329 310 293 280 245 244 249 249 270 272 277 278 263 243 248 268 296 282 271 291 307 317 322 134 125 125 135 135 121 223 215 220 225 236 246 257 269 274 263 251 249 253 250 251 258 266 269 257 261 322 305 282 242 125 293 296 294 294 289 235 212 200 161 145 150 160 165 167 168 166
30 14 22 9 332 327 345 328 326 324 310 305 286 253 303 323 327 333 329 306 306 315 318 267 276 284 277 271 261 265 290 300 269 293 304 285 305 312 312 352 59 109 117 110 120 127 143 253 229 207 254 271 262 261 263 255 249 236 222 223 238 251 261 276 275 267 263 251 256 279 286 159 242 277 283 278 273 248 218 198 165 152 153 158 162 163 164 163
27 5 327 340 324 285 288 296 299 302 302 304 301 293 327 335 331 329 326 315 314 329 337 312 307 318 312 297 254 224 303 328 297 283 287 289 312 320 307 355 39 66 84 75 356 88 126 255 255 245 290 292 268 246 232 229 240 233 216 216 225 246 268 278 274 271 277 286 285 289 284 255 236 259 271 281 283 229 158 156 150 147 150 155 159 159 159 161
29 14 326 325 316 290 293 299 299 296 301 317 332 330 334 334 329 329 325 315 313 325 331 320 314 319 321 315 291 222 244 272 267 260 269 297 310 322 328 353 1 351 2 101 265 317 128 259 299 348 314 288 289 295 250 222 226 217 219 222 210 284 297 279 276 293 325 311 319 330 288 285 263 248 263 296 355 70 112 134 143 151 153 154 157 158 159 162
34 25 343 330 314 303 316 320 320 314 308 346 356 333 333 330 324 325 316 303 309 319 319 318 317 318 320 319 309 278 278 279 261 257 255 253 262 273 283 303 331 334 330 324 294 310 104 323 337 26 346 280 312 332 316 290 93 353 295 297 35 336 298 285 286 289 260 258 284 43 310 286 280 266 278 346 39 59 72 110 133 151 158 156 158 160 161 163
23 25 13 353 309 308 338 332 331 332 315 340 341 324 317 313 314 322 320 308 317 321 318 316 317 321 324 320 316 315 315 304 283 273 264 252 254 260 263 271 283 290 290 312 324 309 100 54 347 20 333 285 306 317 310 45 59 345 278 228 186 234 269 291 295 274 229 204 157 130 205 252 279 291 45 38 41 52 46 71 118 145 159 160 162 163 164 166